TimeEST,TemperatureF,Dew PointF,Humidity,Sea Level PressureIn,VisibilityMPH,Wind Direction,Wind SpeedMPH,Gust SpeedMPH,PrecipitationIn,Events,Conditions,WindDirDegrees,DateUTC
12:53 AM,26.1,21.9,84,30.06,7.0,ENE,3.5,-,N/A,,Mostly Cloudy,60,2014-01-11 05:53:00
1:01 AM,26.6,21.2,80,30.03,7.0,NE,4.6,-,N/A,,Mostly Cloudy,50,2014-01-11 06:01:00
1:53 AM,25.0,21.0,85,30.02,7.0,ENE,5.8,-,N/A,,Partly Cloudy,60,2014-01-11 06:53:00
2:53 AM,25.0,21.0,85,29.97,6.0,NE,8.1,-,N/A,,Clear,50,2014-01-11 07:53:00
3:53 AM,28.0,24.1,85,29.91,3.0,NE,9.2,-,0.00,Rain,Light Freezing Rain,50,2014-01-11 08:53:00
4:20 AM,28.4,24.8,86,29.86,2.5,ENE,9.2,-,0.00,Rain,Light Freezing Rain,60,2014-01-11 09:20:00
4:38 AM,28.4,24.8,86,29.85,1.8,NE,10.4,-,0.00,Rain,Light Freezing Rain,50,2014-01-11 09:38:00
4:48 AM,28.4,24.8,86,29.84,2.5,NE,8.1,-,0.00,Rain,Light Freezing Rain,50,2014-01-11 09:48:00
4:53 AM,28.0,26.1,92,29.85,2.5,NE,9.2,-,0.01,Rain,Light Freezing Rain,50,2014-01-11 09:53:00
5:01 AM,28.4,26.6,93,29.81,2.0,NE,10.4,-,0.01,Rain,Light Freezing Rain,50,2014-01-11 10:01:00
5:11 AM,28.4,26.6,93,29.81,3.0,ENE,10.4,-,0.01,Rain,Light Freezing Rain,60,2014-01-11 10:11:00
5:36 AM,28.4,26.6,93,29.78,3.0,ENE,8.1,-,0.01,,Overcast,60,2014-01-11 10:36:00
5:53 AM,28.9,26.1,89,29.78,3.0,ENE,9.2,-,0.01,,Overcast,70,2014-01-11 10:53:00
6:11 AM,28.4,26.6,93,29.75,3.0,ENE,8.1,-,N/A,,Overcast,70,2014-01-11 11:11:00
6:41 AM,28.4,26.6,93,29.71,2.5,ENE,8.1,-,N/A,,Overcast,60,2014-01-11 11:41:00
6:53 AM,28.9,26.1,89,29.72,3.0,ENE,8.1,-,N/A,,Overcast,60,2014-01-11 11:53:00
7:09 AM,28.4,26.6,93,29.68,2.5,ENE,6.9,-,N/A,,Overcast,60,2014-01-11 12:09:00
7:53 AM,30.0,28.0,92,29.68,2.0,ENE,5.8,-,N/A,,Overcast,60,2014-01-11 12:53:00
8:03 AM,30.2,26.6,86,29.64,1.5,ENE,6.9,-,N/A,,Overcast,60,2014-01-11 13:03:00
8:08 AM,30.2,26.6,86,29.63,1.5,ENE,6.9,-,N/A,,Overcast,60,2014-01-11 13:08:00
8:53 AM,30.9,28.0,89,29.63,1.5,NNE,3.5,-,0.00,,Overcast,20,2014-01-11 13:53:00
9:53 AM,32.0,30.0,92,29.60,1.8,ENE,3.5,-,N/A,,Overcast,70,2014-01-11 14:53:00
10:53 AM,33.1,30.9,92,29.56,1.5,Calm,Calm,-,0.00,,Overcast,0,2014-01-11 15:53:00
11:04 AM,32.0,30.2,93,29.53,1.0,Calm,Calm,-,0.04,Rain,Heavy Rain,0,2014-01-11 16:04:00
11:11 AM,32.0,30.2,93,29.50,0.8,East,5.8,-,0.07,Rain,Rain,100,2014-01-11 16:11:00
11:23 AM,33.8,32.0,93,29.50,1.0,Calm,Calm,-,0.08,Rain,Rain,0,2014-01-11 16:23:00
11:53 AM,33.1,30.9,92,29.49,1.0,Calm,Calm,-,0.11,Rain,Light Rain,0,2014-01-11 16:53:00
12:01 PM,33.8,30.2,87,29.45,1.0,East,3.5,-,0.01,Rain,Rain,100,2014-01-11 17:01:00
12:03 PM,33.8,30.2,87,29.45,0.8,ESE,3.5,-,0.02,Rain,Rain,110,2014-01-11 17:03:00
12:20 PM,33.8,33.8,100,29.43,0.8,Calm,Calm,-,0.05,Rain,Light Rain,0,2014-01-11 17:20:00
12:27 PM,33.8,33.8,100,29.43,0.8,Calm,Calm,-,0.05,Rain,Light Rain,0,2014-01-11 17:27:00
12:53 PM,34.0,33.1,96,29.41,0.8,Calm,Calm,-,0.05,,Overcast,0,2014-01-11 17:53:00
1:47 PM,46.4,44.6,93,29.32,1.5,South,11.5,-,0.03,Rain,Light Rain,180,2014-01-11 18:47:00
1:49 PM,46.4,44.6,93,29.32,3.0,South,11.5,-,0.03,Rain,Light Rain,180,2014-01-11 18:49:00
1:53 PM,46.9,45.0,93,29.33,8.0,South,11.5,-,0.03,Rain,Light Rain,170,2014-01-11 18:53:00
2:53 PM,48.9,46.0,90,29.24,10.0,SE,15.0,23.0,0.00,,Overcast,140,2014-01-11 19:53:00
3:53 PM,46.9,44.1,90,29.24,9.0,Calm,Calm,-,0.00,,Mostly Cloudy,0,2014-01-11 20:53:00
4:07 PM,46.4,44.6,93,29.22,2.5,Calm,Calm,-,N/A,,Mostly Cloudy,0,2014-01-11 21:07:00
4:15 PM,42.8,42.8,100,29.21,3.0,Calm,Calm,-,N/A,,Overcast,0,2014-01-11 21:15:00
4:17 PM,41.0,41.0,100,29.21,1.8,Calm,Calm,-,N/A,,Overcast,0,2014-01-11 21:17:00
4:21 PM,41.0,39.2,93,29.21,0.8,Calm,Calm,-,N/A,,Mostly Cloudy,0,2014-01-11 21:21:00
4:53 PM,43.0,41.0,93,29.21,2.5,Calm,Calm,-,N/A,,Overcast,0,2014-01-11 21:53:00
5:00 PM,39.2,39.2,100,29.19,10.0,Calm,Calm,-,N/A,,Overcast,0,2014-01-11 22:00:00
5:22 PM,39.2,37.4,93,29.18,1.8,Calm,Calm,-,N/A,,Overcast,0,2014-01-11 22:22:00
5:26 PM,39.2,37.4,93,29.18,0.8,Calm,Calm,-,N/A,,Overcast,0,2014-01-11 22:26:00
5:53 PM,39.0,37.9,96,29.18,0.8,Calm,Calm,-,N/A,,Overcast,0,2014-01-11 22:53:00
5:58 PM,39.2,37.4,93,29.18,1.5,Calm,Calm,-,N/A,,Overcast,0,2014-01-11 22:58:00
6:01 PM,39.2,39.2,100,29.18,3.0,Calm,Calm,-,N/A,,Overcast,0,2014-01-11 23:01:00
6:53 PM,48.9,45.0,86,29.15,10.0,SSW,17.3,24.2,0.01,,Overcast,210,2014-01-11 23:53:00
7:30 PM,50.0,44.6,82,29.13,10.0,SSW,20.7,27.6,N/A,,Overcast,210,2014-01-12 00:30:00
7:53 PM,50.0,46.0,86,29.13,9.0,SW,26.5,34.5,0.00,Rain,Light Rain,220,2014-01-12 00:53:00
8:05 PM,48.2,44.6,87,29.13,10.0,SW,19.6,35.7,0.00,Rain,Light Rain,230,2014-01-12 01:05:00
8:20 PM,48.2,44.6,87,29.14,10.0,SW,17.3,29.9,0.00,,Overcast,230,2014-01-12 01:20:00
8:28 PM,48.2,44.6,87,29.14,10.0,SW,20.7,28.8,0.00,,Overcast,230,2014-01-12 01:28:00
8:53 PM,46.0,43.0,89,29.17,10.0,SW,20.7,29.9,0.00,Rain,Light Rain,230,2014-01-12 01:53:00
9:04 PM,46.4,42.8,87,29.14,10.0,SW,16.1,31.1,0.00,Rain,Light Rain,220,2014-01-12 02:04:00
9:36 PM,44.6,41.0,87,29.17,10.0,SW,21.9,32.2,0.00,Rain,Light Rain,220,2014-01-12 02:36:00
9:53 PM,45.0,41.0,86,29.19,10.0,SW,26.5,41.4,0.00,,Overcast,220,2014-01-12 02:53:00
10:53 PM,43.0,37.9,82,29.22,10.0,SW,25.3,33.4,N/A,,Overcast,230,2014-01-12 03:53:00
11:53 PM,41.0,36.0,82,29.25,10.0,SW,20.7,35.7,N/A,,Overcast,220,2014-01-12 04:53:00